WAT721 KAUS-KSJC

Flight info

Callsign WAT721
Flight time N/A
Altitude 30000
Route AEROZ2 SJT ABQ NAVJO/N0497F320 DEANN WINEN KITTN KATTS KNGRY RAZRR5
Aircraft B77L/H-SDE1E2E3FGHIJ2J3J4J5M1RWXY/LB1D1

Departure

Time 2026-05-04 21:57
Airport Austin Bergstrom International Airport (KAUS)

Arrival

Time N/A
Airport Norman Y. Mineta San Jose International Airport (KSJC)
Time Latitude Longitude Altitude Speed Heading
2026-05-04 21:27 30.21677 -97.67203 498 ft 0 kts
2026-05-04 21:51 30.21657 -97.67208 550 ft 4 kts 14°
2026-05-04 21:51 30.21637 -97.67213 554 ft 4 kts 339°
2026-05-04 21:51 30.21621 -97.67203 552 ft 4 kts 303°
2026-05-04 21:52 30.21612 -97.67177 554 ft 4 kts 280°
2026-05-04 21:52 30.21610 -97.67164 549 ft 1 kts 280°
2026-05-04 21:54 30.21619 -97.67226 547 ft 16 kts 279°
2026-05-04 21:55 30.21635 -97.67332 556 ft 14 kts 279°
2026-05-04 21:55 30.21651 -97.67440 563 ft 14 kts 277°
2026-05-04 21:55 30.21634 -97.67548 565 ft 15 kts 239°
2026-05-04 21:55 30.21545 -97.67657 559 ft 23 kts 218°
2026-05-04 21:56 30.21429 -97.67772 551 ft 21 kts 225°
2026-05-04 21:56 30.21377 -97.67831 563 ft 9 kts 223°
2026-05-04 21:56 30.21303 -97.67908 550 ft 19 kts 221°
2026-05-04 21:56 30.21137 -97.67927 550 ft 36 kts 178°
2026-05-04 21:57 30.20684 -97.67919 546 ft 98 kts 178°
2026-05-04 21:57 30.19803 -97.67896 528 ft 153 kts 179°
2026-05-04 21:57 30.18652 -97.67865 794 ft 168 kts 179°
2026-05-04 21:57 30.17508 -97.67846 1492 ft 163 kts 180°
2026-05-04 21:58 30.16349 -97.67825 2013 ft 168 kts 181°
2026-05-04 21:58 30.15202 -97.68153 2339 ft 181 kts 214°
2026-05-04 21:58 30.14414 -97.69376 2554 ft 209 kts 246°
2026-05-04 21:58 30.14344 -97.71189 2679 ft 246 kts 280°
2026-05-04 21:59 30.15046 -97.73084 3040 ft 265 kts 295°
2026-05-04 21:59 30.16005 -97.74907 3728 ft 273 kts 297°
2026-05-04 21:59 30.17049 -97.76774 4382 ft 278 kts 298°
2026-05-04 21:59 30.18104 -97.78646 5160 ft 278 kts 299°
2026-05-04 22:00 30.19141 -97.80488 6217 ft 265 kts 300°
2026-05-04 22:00 30.20136 -97.82269 7020 ft 266 kts 300°
2026-05-04 22:00 30.21128 -97.84059 7860 ft 260 kts 300°
2026-05-04 22:00 30.22095 -97.85817 8651 ft 258 kts 300°
2026-05-04 22:01 30.23055 -97.87574 9339 ft 260 kts 300°
2026-05-04 22:01 30.24029 -97.89360 9954 ft 264 kts 300°
2026-05-04 22:01 30.25005 -97.91155 10454 ft 273 kts 300°
2026-05-04 22:01 30.26057 -97.93097 10611 ft 297 kts 300°
2026-05-04 22:02 30.27191 -97.95195 10845 ft 319 kts 300°
2026-05-04 22:02 30.28415 -97.97455 11012 ft 342 kts 300°
2026-05-04 22:02 30.29704 -97.99836 11477 ft 354 kts 300°
2026-05-04 22:02 30.31020 -98.02265 12231 ft 358 kts 300°
2026-05-04 22:03 30.32346 -98.04717 13088 ft 361 kts 300°
2026-05-04 22:03 30.33679 -98.07184 13959 ft 362 kts 300°
2026-05-04 22:03 30.35002 -98.09634 14711 ft 365 kts 301°
2026-05-04 22:03 30.36350 -98.12135 15424 ft 368 kts 301°
2026-05-04 22:04 30.37712 -98.14662 16154 ft 371 kts 301°
2026-05-04 22:04 30.39083 -98.17208 16886 ft 374 kts 301°
2026-05-04 22:04 30.40466 -98.19765 17598 ft 376 kts 301°
2026-05-04 22:04 30.41862 -98.22346 18180 ft 380 kts 301°
2026-05-04 22:05 30.43262 -98.24954 18696 ft 382 kts 301°
2026-05-04 22:05 30.44662 -98.27572 19337 ft 381 kts 300°
2026-05-04 22:05 30.45992 -98.30169 19963 ft 380 kts 297°
2026-05-04 22:05 30.46815 -98.32007 20329 ft 380 kts 296°
2026-05-04 22:06 30.47640 -98.33892 20694 ft 382 kts 295°
2026-05-04 22:06 30.48834 -98.36645 21238 ft 382 kts 295°
2026-05-04 22:06 30.50026 -98.39400 21811 ft 383 kts 295°
2026-05-04 22:06 30.51224 -98.42161 22361 ft 384 kts 295°
2026-05-04 22:07 30.52426 -98.44925 22895 ft 384 kts 295°
2026-05-04 22:07 30.53632 -98.47695 23404 ft 385 kts 295°
2026-05-04 22:07 30.54826 -98.50441 23830 ft 387 kts 295°
2026-05-04 22:07 30.56041 -98.53237 24189 ft 389 kts 295°
2026-05-04 22:08 30.57262 -98.56046 24550 ft 391 kts 295°
2026-05-04 22:08 30.58491 -98.58876 24933 ft 393 kts 295°
2026-05-04 22:08 30.59721 -98.61712 25321 ft 395 kts 295°
2026-05-04 22:08 30.60959 -98.64568 25683 ft 397 kts 295°
2026-05-04 22:09 30.62201 -98.67434 26070 ft 399 kts 295°
2026-05-04 22:09 30.63449 -98.70316 26434 ft 400 kts 295°
2026-05-04 22:09 30.64702 -98.73213 26813 ft 402 kts 295°
2026-05-04 22:09 30.65942 -98.76083 27154 ft 404 kts 295°
2026-05-04 22:10 30.67204 -98.79007 27505 ft 406 kts 296°
2026-05-04 22:10 30.68472 -98.81944 27839 ft 408 kts 296°
2026-05-04 22:10 30.69747 -98.84899 28174 ft 410 kts 296°
2026-05-04 22:10 30.71026 -98.87865 28475 ft 412 kts 296°
2026-05-04 22:11 30.72312 -98.90850 28759 ft 414 kts 296°
2026-05-04 22:11 30.73603 -98.93847 29032 ft 416 kts 296°
2026-05-04 22:11 30.74901 -98.96865 29321 ft 418 kts 296°
2026-05-04 22:11 30.76204 -98.99895 29587 ft 420 kts 296°
2026-05-04 22:12 30.77494 -99.02900 29764 ft 423 kts 296°
2026-05-04 22:12 30.80125 -99.09036 29841 ft 425 kts 296°
2026-05-04 22:13 30.82767 -99.15210 29837 ft 426 kts 296°
2026-05-04 22:13 30.85407 -99.21388 29837 ft 427 kts 296°
2026-05-04 22:14 30.88030 -99.27539 29836 ft 427 kts 296°
2026-05-04 22:14 30.90665 -99.33727 29838 ft 426 kts 296°
2026-05-04 22:15 30.93293 -99.39907 29833 ft 426 kts 296°
2026-05-04 22:15 30.95916 -99.46088 29836 ft 425 kts 295°
2026-05-04 22:16 30.98532 -99.52263 29826 ft 425 kts 295°
2026-05-04 22:16 31.01124 -99.58390 29831 ft 424 kts 295°
2026-05-04 22:17 31.03730 -99.64561 29816 ft 424 kts 295°
2026-05-04 22:17 31.06334 -99.70736 29809 ft 424 kts 295°
2026-05-04 22:18 31.08934 -99.76914 29799 ft 424 kts 295°
2026-05-04 22:18 31.11516 -99.83059 29805 ft 425 kts 295°
2026-05-04 22:19 31.14113 -99.89250 29795 ft 425 kts 295°
2026-05-04 22:19 31.16706 -99.95444 29805 ft 425 kts 295°
2026-05-04 22:20 31.19300 -100.01648 29802 ft 425 kts 295°
2026-05-04 22:20 31.21872 -100.07812 29807 ft 425 kts 295°
2026-05-04 22:21 31.24460 -100.14025 29808 ft 425 kts 295°
2026-05-04 22:21 31.27043 -100.20236 29821 ft 425 kts 295°
2026-05-04 22:22 31.29626 -100.26457 29826 ft 425 kts 295°
2026-05-04 22:22 31.32187 -100.32640 29842 ft 425 kts 295°
2026-05-04 22:23 31.34763 -100.38864 29840 ft 425 kts 295°
2026-05-04 22:23 31.37436 -100.45038 29849 ft 426 kts 298°
2026-05-04 22:24 31.40769 -100.50785 29853 ft 428 kts 303°
2026-05-04 22:24 31.44309 -100.56390 29847 ft 428 kts 303°
2026-05-04 22:25 31.47812 -100.61971 29829 ft 428 kts 303°
2026-05-04 22:25 31.51328 -100.67598 29822 ft 428 kts 303°
2026-05-04 22:26 31.54841 -100.73237 29804 ft 428 kts 303°
2026-05-04 22:26 31.58352 -100.78882 29793 ft 428 kts 303°
2026-05-04 22:27 31.61834 -100.84487 29781 ft 428 kts 303°
2026-05-04 22:27 31.65341 -100.90140 29773 ft 428 kts 303°
2026-05-04 22:28 31.68846 -100.95800 29779 ft 428 kts 303°
2026-05-04 22:28 31.72346 -101.01457 29771 ft 428 kts 303°
2026-05-04 22:29 31.75845 -101.07122 29772 ft 428 kts 303°
2026-05-04 22:29 31.79318 -101.12755 29770 ft 429 kts 303°
2026-05-04 22:30 31.82812 -101.18430 29764 ft 429 kts 303°
2026-05-04 22:30 31.86308 -101.24116 29759 ft 429 kts 303°
2026-05-04 22:31 31.89801 -101.29807 29763 ft 429 kts 302°
2026-05-04 22:31 31.93272 -101.35468 29774 ft 429 kts 303°
2026-05-04 22:32 31.96765 -101.41174 29786 ft 430 kts 302°
2026-05-04 22:32 31.99168 -101.45105 29800 ft 430 kts 302°
2026-05-04 22:33 32.02665 -101.50832 29815 ft 431 kts 302°
2026-05-04 22:33 32.06140 -101.56532 29829 ft 431 kts 302°
2026-05-04 22:34 32.09636 -101.62275 29834 ft 431 kts 302°
2026-05-04 22:34 32.13128 -101.68019 29823 ft 431 kts 302°
2026-05-04 22:35 32.16617 -101.73769 29810 ft 431 kts 302°
2026-05-04 22:35 32.20080 -101.79483 29805 ft 431 kts 302°
2026-05-04 22:36 32.23567 -101.85246 29776 ft 431 kts 302°
2026-05-04 22:36 32.27055 -101.91019 29783 ft 432 kts 302°
2026-05-04 22:37 32.30540 -101.96797 29777 ft 432 kts 302°
2026-05-04 22:37 32.34024 -102.02581 29765 ft 432 kts 302°
2026-05-04 22:38 32.37486 -102.08337 29752 ft 432 kts 302°
2026-05-04 22:38 32.40967 -102.14133 29744 ft 432 kts 302°
2026-05-04 22:39 32.44445 -102.19934 29747 ft 432 kts 302°
2026-05-04 22:39 32.47700 -102.25371 29741 ft 432 kts 302°
2026-05-04 22:40 32.51145 -102.31133 29764 ft 432 kts 302°
2026-05-04 22:40 32.54613 -102.36944 29795 ft 432 kts 302°
2026-05-04 22:41 32.58082 -102.42765 29830 ft 432 kts 302°
2026-05-04 22:41 32.61548 -102.48591 29869 ft 433 kts 301°
2026-05-04 22:42 32.64991 -102.54386 29909 ft 433 kts 301°
2026-05-04 22:42 32.68459 -102.60232 29917 ft 433 kts 301°
2026-05-04 22:43 32.71926 -102.66085 29914 ft 433 kts 301°
2026-05-04 22:43 32.75393 -102.71948 29895 ft 434 kts 301°
2026-05-04 22:44 32.78832 -102.77773 29862 ft 434 kts 301°
2026-05-04 22:44 32.82293 -102.83643 29833 ft 434 kts 301°
2026-05-04 22:45 32.85755 -102.89525 29814 ft 434 kts 301°
2026-05-04 22:45 32.90948 -102.98366 29743 ft 435 kts 301°
2026-05-04 22:46 32.94390 -103.04237 29746 ft 436 kts 301°
2026-05-04 22:46 32.97859 -103.10165 29744 ft 437 kts 301°
2026-05-04 22:47 33.01333 -103.16109 29743 ft 437 kts 301°
2026-05-04 22:47 33.04809 -103.22067 29739 ft 438 kts 301°
2026-05-04 22:48 33.08256 -103.27984 29742 ft 437 kts 301°
2026-05-04 22:48 33.11718 -103.33935 29736 ft 437 kts 301°
2026-05-04 22:49 33.15173 -103.39884 29738 ft 436 kts 300°
2026-05-04 22:49 33.18619 -103.45828 29734 ft 435 kts 300°
2026-05-04 22:50 33.22035 -103.51730 29729 ft 434 kts 300°
2026-05-04 22:50 33.25466 -103.57667 29735 ft 434 kts 300°
2026-05-04 22:51 33.28894 -103.63609 29729 ft 434 kts 300°
2026-05-04 22:51 33.32317 -103.69552 29723 ft 434 kts 300°
2026-05-04 22:52 33.35710 -103.75452 29725 ft 433 kts 300°
2026-05-04 22:52 33.39124 -103.81398 29715 ft 433 kts 300°
2026-05-04 22:53 33.42534 -103.87347 29714 ft 433 kts 300°
2026-05-04 22:53 33.45941 -103.93300 29710 ft 433 kts 300°
2026-05-04 22:54 33.49322 -103.99217 29706 ft 433 kts 300°
2026-05-04 22:54 33.52722 -104.05177 29699 ft 433 kts 300°
2026-05-04 22:55 33.56119 -104.11141 29700 ft 433 kts 300°
2026-05-04 22:55 33.59515 -104.17113 29692 ft 433 kts 300°
2026-05-04 22:56 33.62881 -104.23043 29686 ft 433 kts 299°
2026-05-04 22:56 33.66272 -104.29026 29689 ft 434 kts 299°
2026-05-04 22:57 33.69663 -104.35019 29677 ft 434 kts 299°
2026-05-04 22:57 33.73051 -104.41017 29689 ft 434 kts 299°
2026-05-04 22:58 33.76418 -104.46987 29689 ft 434 kts 299°
2026-05-04 22:58 33.79805 -104.53003 29693 ft 435 kts 299°
2026-05-04 22:59 33.83194 -104.59031 29696 ft 435 kts 299°
2026-05-04 22:59 33.86582 -104.65068 29705 ft 436 kts 299°
2026-05-04 23:00 33.89947 -104.71074 29708 ft 436 kts 299°
2026-05-04 23:00 33.93332 -104.77126 29714 ft 436 kts 299°
2026-05-04 23:01 33.96714 -104.83182 29726 ft 435 kts 299°
2026-05-04 23:01 34.00090 -104.89237 29728 ft 435 kts 299°
2026-05-04 23:02 34.03433 -104.95244 29734 ft 434 kts 299°
2026-05-04 23:02 34.06793 -105.01291 29735 ft 434 kts 299°
2026-05-04 23:03 34.10148 -105.07338 29744 ft 433 kts 299°
2026-05-04 23:03 34.13494 -105.13382 29752 ft 433 kts 299°
2026-05-04 23:04 34.16838 -105.19434 29751 ft 433 kts 299°
2026-05-04 23:04 34.20157 -105.25446 29756 ft 433 kts 299°
2026-05-04 23:05 34.23497 -105.31509 29751 ft 433 kts 299°
2026-05-04 23:05 34.26834 -105.37576 29770 ft 434 kts 299°
2026-05-04 23:06 34.30176 -105.43662 29769 ft 434 kts 299°
2026-05-04 23:06 34.33494 -105.49712 29779 ft 435 kts 299°
2026-05-04 23:07 34.36832 -105.55812 29783 ft 435 kts 299°
2026-05-04 23:07 34.40170 -105.61923 29794 ft 435 kts 299°
2026-05-04 23:08 34.43507 -105.68041 29796 ft 435 kts 299°
2026-05-04 23:08 34.46817 -105.74121 29792 ft 435 kts 299°
2026-05-04 23:09 34.50149 -105.80251 29796 ft 435 kts 299°
2026-05-04 23:09 34.53472 -105.86375 29800 ft 435 kts 299°
2026-05-04 23:10 34.56793 -105.92506 29771 ft 435 kts 298°
2026-05-04 23:10 34.60090 -105.98603 29780 ft 435 kts 298°
2026-05-04 23:11 34.63401 -106.04737 29782 ft 434 kts 298°
2026-05-04 23:11 34.66148 -106.09835 29778 ft 434 kts 298°
2026-05-04 23:12 34.69452 -106.15974 29786 ft 434 kts 298°
2026-05-04 23:12 34.73288 -106.23118 29779 ft 434 kts 298°
2026-05-04 23:13 34.76584 -106.29266 29779 ft 434 kts 298°
2026-05-04 23:13 34.79878 -106.35420 29800 ft 434 kts 298°
2026-05-04 23:14 34.82611 -106.40535 29826 ft 434 kts 298°
2026-05-04 23:14 34.86436 -106.47708 29865 ft 435 kts 298°
2026-05-04 23:15 34.89723 -106.53884 29893 ft 434 kts 298°
2026-05-04 23:15 34.92450 -106.59015 29918 ft 434 kts 298°
2026-05-04 23:16 34.95725 -106.65188 29941 ft 433 kts 298°
2026-05-04 23:16 34.98995 -106.71363 29924 ft 433 kts 298°
2026-05-04 23:17 35.02260 -106.77539 29941 ft 433 kts 298°
2026-05-04 23:17 35.05396 -106.83732 29967 ft 430 kts 295°
2026-05-04 23:18 35.08268 -106.90139 29969 ft 430 kts 294°
2026-05-04 23:18 35.11122 -106.96568 29925 ft 431 kts 294°
2026-05-04 23:19 35.13983 -107.03001 29891 ft 431 kts 294°
2026-05-04 23:19 35.16825 -107.09388 29848 ft 431 kts 294°
2026-05-04 23:20 35.19682 -107.15816 29803 ft 430 kts 294°
2026-05-04 23:20 35.22536 -107.22247 29758 ft 430 kts 294°
2026-05-04 23:21 35.25380 -107.28669 29777 ft 429 kts 294°
2026-05-04 23:21 35.28202 -107.35052 29760 ft 430 kts 294°
2026-05-04 23:22 35.31035 -107.41479 29781 ft 429 kts 294°
2026-05-04 23:22 35.33866 -107.47904 29776 ft 428 kts 294°
2026-05-04 23:23 35.36588 -107.54098 29792 ft 428 kts 293°
2026-05-04 23:23 35.39389 -107.60486 29804 ft 428 kts 293°
2026-05-04 23:24 35.42202 -107.66906 29819 ft 427 kts 293°
2026-05-04 23:24 35.45007 -107.73328 29826 ft 427 kts 293°
2026-05-04 23:25 35.47813 -107.79760 29824 ft 428 kts 293°
2026-05-04 23:25 35.50605 -107.86175 29797 ft 430 kts 293°
2026-05-04 23:26 35.53421 -107.92656 29775 ft 431 kts 292°
2026-05-04 23:26 35.56236 -107.99144 29781 ft 431 kts 292°
2026-05-04 23:27 35.59052 -108.05652 29748 ft 432 kts 292°
2026-05-04 23:27 35.61846 -108.12122 29775 ft 431 kts 292°
2026-05-04 23:28 35.64658 -108.18637 29756 ft 432 kts 292°
2026-05-04 23:28 35.67469 -108.25170 29751 ft 433 kts 292°
2026-05-04 23:29 35.70286 -108.31733 29746 ft 434 kts 292°
2026-05-04 23:29 35.73077 -108.38249 29743 ft 435 kts 292°
2026-05-04 23:30 35.75900 -108.44846 29684 ft 435 kts 291°
2026-05-04 23:30 35.78716 -108.51440 29732 ft 436 kts 291°
2026-05-04 23:31 35.81536 -108.58058 29745 ft 437 kts 291°
2026-05-04 23:31 35.84340 -108.64654 29743 ft 438 kts 291°
2026-05-04 23:32 35.87165 -108.71311 29751 ft 439 kts 290°
2026-05-04 23:32 35.89988 -108.77976 29789 ft 439 kts 290°
2026-05-04 23:33 35.92801 -108.84632 29806 ft 441 kts 290°
2026-05-04 23:33 35.95633 -108.91346 29824 ft 441 kts 290°
2026-05-04 23:34 35.98464 -108.98071 29801 ft 441 kts 290°
2026-05-04 23:34 36.01287 -109.04787 29802 ft 440 kts 290°
2026-05-04 23:35 36.04101 -109.11500 29770 ft 440 kts 290°
2026-05-04 23:35 36.06888 -109.18160 29799 ft 439 kts 290°
2026-05-04 23:36 36.09687 -109.24868 29801 ft 439 kts 290°
2026-05-04 23:36 36.12492 -109.31592 29737 ft 440 kts 290°
2026-05-04 23:37 36.15287 -109.38322 29772 ft 441 kts 290°
2026-05-04 23:37 36.18075 -109.45047 29778 ft 442 kts 290°
2026-05-04 23:38 36.20886 -109.51831 29765 ft 444 kts 290°
2026-05-04 23:38 36.23702 -109.58643 29759 ft 444 kts 290°
2026-05-04 23:39 36.26514 -109.65462 29759 ft 444 kts 290°
2026-05-04 23:39 36.29300 -109.72232 29752 ft 444 kts 290°
2026-05-04 23:40 36.32105 -109.79062 29755 ft 445 kts 289°
2026-05-04 23:40 36.34908 -109.85900 29749 ft 445 kts 289°
2026-05-04 23:41 36.37712 -109.92761 29763 ft 446 kts 289°
2026-05-04 23:41 36.40519 -109.99642 29767 ft 447 kts 289°
2026-05-04 23:42 36.43311 -110.06497 29768 ft 448 kts 289°
2026-05-04 23:42 36.46111 -110.13386 29766 ft 444 kts 289°
2026-05-04 23:43 36.48874 -110.20195 29769 ft 439 kts 289°
2026-05-04 23:43 36.51612 -110.26971 29774 ft 438 kts 289°
2026-05-04 23:44 36.54327 -110.33699 29780 ft 438 kts 289°
2026-05-04 23:44 36.57130 -110.40441 29774 ft 443 kts 292°
2026-05-04 23:45 36.60368 -110.46983 29794 ft 444 kts 293°
2026-05-04 23:45 36.63637 -110.53518 29792 ft 445 kts 293°
2026-05-04 23:46 36.66874 -110.60031 29782 ft 445 kts 292°
2026-05-04 23:46 36.70118 -110.66600 29777 ft 445 kts 292°
2026-05-04 23:47 36.73358 -110.73182 29785 ft 445 kts 292°
2026-05-04 23:47 36.76595 -110.79775 29763 ft 446 kts 292°
2026-05-04 23:48 36.79824 -110.86359 29773 ft 444 kts 292°
2026-05-04 23:48 36.83011 -110.92867 29777 ft 441 kts 292°
2026-05-04 23:49 36.86197 -110.99385 29765 ft 439 kts 292°
2026-05-04 23:49 36.89360 -111.05876 29786 ft 436 kts 292°
2026-05-04 23:50 36.92507 -111.12348 29807 ft 435 kts 292°
2026-05-04 23:50 36.95643 -111.18802 29828 ft 433 kts 292°
2026-05-04 23:51 36.98737 -111.25188 29842 ft 431 kts 291°
2026-05-04 23:51 37.01829 -111.31578 29841 ft 428 kts 291°
2026-05-04 23:52 37.04908 -111.37961 29842 ft 428 kts 291°
2026-05-04 23:52 37.07985 -111.44349 29844 ft 428 kts 292°
2026-05-04 23:53 37.11051 -111.50723 29841 ft 426 kts 292°
2026-05-04 23:53 37.14082 -111.57037 29804 ft 425 kts 292°
2026-05-04 23:54 37.17125 -111.63395 29786 ft 425 kts 291°
2026-05-04 23:54 37.20163 -111.69750 29757 ft 425 kts 292°
2026-05-04 23:55 37.22987 -111.76224 29745 ft 421 kts 289°
2026-05-04 23:56 37.27037 -111.86024 29753 ft 426 kts 289°
2026-05-04 23:56 37.29776 -111.92658 29754 ft 429 kts 289°
2026-05-04 23:57 37.32524 -111.99302 29768 ft 428 kts 289°
2026-05-04 23:57 37.35267 -112.05951 29768 ft 430 kts 289°
2026-05-04 23:58 37.38029 -112.12663 29804 ft 433 kts 289°
2026-05-04 23:58 37.40782 -112.19363 29824 ft 435 kts 289°
2026-05-04 23:59 37.43558 -112.26129 29812 ft 435 kts 289°
2026-05-04 23:59 37.46325 -112.32891 29851 ft 434 kts 289°
2026-05-05 00:00 37.49087 -112.39658 29853 ft 435 kts 289°
2026-05-05 00:00 37.51833 -112.46398 29834 ft 436 kts 290°
2026-05-05 00:01 37.54600 -112.53203 29804 ft 437 kts 290°
2026-05-05 00:01 37.57366 -112.60022 29797 ft 437 kts 290°
2026-05-05 00:02 37.60127 -112.66842 29794 ft 437 kts 290°
2026-05-05 00:02 37.62884 -112.73665 29819 ft 436 kts 290°
2026-05-05 00:03 37.65613 -112.80436 29858 ft 436 kts 290°
2026-05-05 00:03 37.68358 -112.87264 29892 ft 437 kts 290°
2026-05-05 00:04 37.71104 -112.94109 29898 ft 436 kts 290°
2026-05-05 00:04 37.73839 -113.00940 29923 ft 436 kts 290°
2026-05-05 00:05 37.76574 -113.07789 29918 ft 436 kts 290°
2026-05-05 00:05 37.79287 -113.14594 29919 ft 436 kts 290°
2026-05-05 00:06 37.82014 -113.21449 29886 ft 437 kts 290°
2026-05-05 00:06 37.84739 -113.28318 29852 ft 438 kts 290°
2026-05-05 00:07 37.87471 -113.35220 29817 ft 439 kts 290°
2026-05-05 00:07 37.90188 -113.42099 29782 ft 440 kts 290°
2026-05-05 00:08 37.92916 -113.49056 29764 ft 441 kts 289°
2026-05-05 00:08 37.95094 -113.56253 29761 ft 437 kts 284°
2026-05-05 00:09 37.97091 -113.63547 29766 ft 439 kts 284°
2026-05-05 00:09 37.99101 -113.70863 29771 ft 440 kts 284°
2026-05-05 00:10 38.01113 -113.78163 29762 ft 442 kts 284°
2026-05-05 00:10 38.03141 -113.85527 29763 ft 443 kts 284°
2026-05-05 00:11 38.05167 -113.92903 29756 ft 443 kts 284°
2026-05-05 00:11 38.07191 -114.00291 29764 ft 443 kts 284°
2026-05-05 00:12 38.09193 -114.07623 29765 ft 444 kts 284°
2026-05-05 00:12 38.11214 -114.15048 29762 ft 445 kts 284°
2026-05-05 00:13 38.13233 -114.22490 29753 ft 446 kts 283°
2026-05-05 00:13 38.15250 -114.29941 29728 ft 446 kts 283°
2026-05-05 00:14 38.17265 -114.37408 29756 ft 447 kts 283°
2026-05-05 00:14 38.19284 -114.44908 29752 ft 450 kts 283°
2026-05-05 00:15 38.21294 -114.52396 29733 ft 452 kts 283°
2026-05-05 00:15 38.23319 -114.59967 29725 ft 452 kts 283°
2026-05-05 00:16 38.25339 -114.67537 29735 ft 452 kts 283°
2026-05-05 00:16 38.27355 -114.75124 29729 ft 453 kts 283°
2026-05-05 00:17 38.29372 -114.82734 29724 ft 455 kts 283°
2026-05-05 00:17 38.31376 -114.90322 29717 ft 455 kts 282°
2026-05-05 00:18 38.32693 -114.98128 29721 ft 450 kts 273°
2026-05-05 00:18 38.33049 -115.06053 29714 ft 448 kts 267°
2026-05-05 00:19 38.33077 -115.14004 29717 ft 450 kts 266°
2026-05-05 00:19 38.33102 -115.21925 29713 ft 451 kts 266°
2026-05-05 00:20 38.33143 -115.29915 29716 ft 451 kts 267°
2026-05-05 00:20 38.33188 -115.37913 29722 ft 452 kts 267°
2026-05-05 00:21 38.33228 -115.45938 29730 ft 454 kts 267°
2026-05-05 00:21 38.33262 -115.53987 29711 ft 455 kts 267°
2026-05-05 00:22 38.33291 -115.62062 29728 ft 457 kts 267°
2026-05-05 00:22 38.33313 -115.70126 29725 ft 459 kts 267°
2026-05-05 00:23 38.33331 -115.78278 29724 ft 461 kts 267°
2026-05-05 00:23 38.33343 -115.86444 29731 ft 462 kts 267°
2026-05-05 00:24 38.33349 -115.94655 29744 ft 464 kts 267°
2026-05-05 00:24 38.33349 -116.02851 29737 ft 467 kts 267°
2026-05-05 00:25 38.33344 -116.11142 29746 ft 469 kts 268°
2026-05-05 00:25 38.33333 -116.19464 29759 ft 471 kts 268°
2026-05-05 00:26 38.33305 -116.27833 29768 ft 473 kts 266°
2026-05-05 00:26 38.32468 -116.36113 29782 ft 472 kts 256°
2026-05-05 00:27 38.30765 -116.43500 29778 ft 473 kts 250°
2026-05-05 00:27 38.28682 -116.51400 29785 ft 474 kts 250°
2026-05-05 00:28 38.26592 -116.59357 29722 ft 472 kts 250°
2026-05-05 00:28 38.24532 -116.67273 29725 ft 473 kts 250°
2026-05-05 00:29 38.22456 -116.75264 29750 ft 477 kts 251°
2026-05-05 00:29 38.20366 -116.83282 29783 ft 478 kts 250°
2026-05-05 00:30 38.18284 -116.91247 29805 ft 478 kts 251°
2026-05-05 00:30 38.16183 -116.99253 29829 ft 475 kts 250°
2026-05-05 00:31 38.14090 -117.07202 29841 ft 474 kts 250°
2026-05-05 00:31 38.12002 -117.15109 29831 ft 470 kts 251°
2026-05-05 00:32 38.09906 -117.23018 29830 ft 474 kts 251°
2026-05-05 00:32 38.07813 -117.30893 29808 ft 476 kts 251°
2026-05-05 00:33 38.05676 -117.38910 29802 ft 483 kts 251°
2026-05-05 00:33 38.03510 -117.47013 29775 ft 486 kts 251°
2026-05-05 00:34 38.01326 -117.55154 29750 ft 488 kts 251°
2026-05-05 00:34 37.98699 -117.63042 29750 ft 490 kts 244°
2026-05-05 00:35 37.95634 -117.70790 29752 ft 492 kts 244°
2026-05-05 00:35 37.92573 -117.78563 29750 ft 494 kts 244°
2026-05-05 00:36 37.89563 -117.86410 29752 ft 497 kts 245°
2026-05-05 00:36 37.87072 -117.92969 29758 ft 498 kts 245°